[[{"header":{"parameterUnit":"m.s-1","parameterCategory":1,"la1":30.2992,"la2":30.254,"lo1":-89.0895,"lo2":-89.0443,"dy":0.0025,"dx":0.0025,"nx":19,"ny":19,"refTime":"2026-03-23T09:00:00:Z","depth":0,"parameterNumber":2,"parameterNumberName":"U-component_of_WINDS"},"data":[0,0,0,-1.9558,-1.956,-1.9683,-1.9683,-1.9798,-1.9799,0,0,0,0,0,0,0,0,0,0,0,-1.9495,-1.9495,-1.9558,-1.956,-1.9682,-1.9683,-1.9798,-1.9799,0,0,0,0,0,0,0,0,0,0,0,-1.9495,-1.9495,-1.9495,-1.956,-1.9682,-1.9683,-1.9798,-1.972,0,0,0,0,0,0,0,0,0,0,-1.9608,-1.9525,-1.9495,-1.9495,-1.9561,-1.9682,-1.9683,-1.9717,-1.9725,-1.9725,0,-1.9717,0,-1.976,-1.9804,-1.9804,0,0,0,-1.9579,-1.9518,-1.9575,-1.9495,-1.9562,-1.9682,-1.9633,-1.9722,-1.9731,-1.9735,-1.9719,-1.9725,-1.9762,-1.9805,-1.9805,-1.974,-1.9738,0,0,-1.9572,-1.9503,-1.9569,-1.958,-1.9558,-1.9628,-1.9636,-1.9728,-1.9706,-1.972,-1.9728,-1.9764,-1.9805,-1.9806,-1.9741,-1.9739,0,0,0,-1.954,-1.9497,-1.9553,-1.9574,-1.9599,-1.9631,-1.964,-1.9702,-1.9726,-1.973,-1.9765,-1.9805,-1.9806,-1.9742,-1.974,-1.961,0,0,0,-1.9537,-1.9479,-1.9549,-1.9508,-1.9597,-1.9652,-1.9611,-1.972,-1.9733,-1.9764,-1.9805,-1.9807,-1.9744,-1.9741,-1.9617,-1.9558,0,0,0,-1.9496,-1.9474,-1.9483,-1.9504,-1.9555,-1.9652,-1.9682,-1.9724,-1.9753,-1.9804,-1.9807,-1.9745,-1.9742,-1.9623,-1.9568,-1.9518,0,0,0,-1.9432,-1.9366,-1.948,-1.9421,-1.9553,-1.9573,-1.9683,-1.9701,-1.973,-1.9806,-1.9743,-1.974,-1.9625,-1.9574,-1.9524,-1.9459,-1.9427,0,0,-1.931,-1.9349,-1.932,-1.9426,-1.9407,-1.956,-1.9524,-1.9615,-1.9684,-1.9717,-1.9717,-1.9615,-1.9569,-1.9519,-1.9283,-1.9257,0,0,0,-1.9257,-1.9234,-1.9246,-1.927,-1.9341,-1.9396,-1.9502,-1.9537,-1.9569,-1.9687,-1.9589,-1.9564,-1.9537,-1.9509,-1.9487,-1.9467,-1.9726,-1.9727,-1.9727,-1.8978,-1.9073,-1.903,-1.9139,-1.9163,-1.9276,-1.9303,-1.937,-1.9456,-1.9432,-1.9439,-1.9285,-1.9249,-1.9233,-1.9212,-1.9419,-1.9418,-1.9418,-1.9418,-1.8803,-1.8783,-1.8906,-1.8907,-1.9008,-1.9011,-1.9119,-1.9182,-1.9198,-1.9286,-1.9268,-1.9349,-1.9202,-1.9188,-1.9409,-1.941,-1.9411,-1.9412,-1.9413,-1.8624,-1.8631,-1.8678,-1.8726,-1.8754,-1.887,-1.8881,-1.8975,-1.9062,-1.9045,-1.9061,-1.9063,-1.9072,-1.9048,-1.9047,-1.9047,-1.9046,-1.9046,-1.9046,-1.8417,-1.8475,-1.8472,-1.8546,-1.8576,-1.8627,-1.8745,-1.8777,-1.8837,-1.8903,-1.8904,-1.899,-1.9173,-1.9212,-1.9037,-1.9039,-1.904,-1.9041,-1.9041,-1.819,-1.8258,-1.8253,-1.8284,-1.838,-1.84,-1.8524,-1.8582,-1.8623,-1.8626,-1.8722,-1.8843,-1.8888,-1.8906,-1.8939,-1.8704,-1.8704,-1.8704,-1.8704,-1.8033,-1.8069,-1.8087,-1.8129,-1.8183,-1.8295,-1.8288,-1.8381,-1.8488,-1.852,-1.857,-1.8625,-1.864,-1.8676,-1.8699,-1.8731,-1.8448,-1.8448,-1.8448,-1.7897,-1.7943,-1.7916,-1.8024,-1.8108,-1.8178,-1.8174,-1.8218,-1.8355,-1.8439,-1.8545,-1.8556,-1.8646,-1.8672,-1.8746,-1.8781,-1.8842,0,0]},{"header":{"parameterUnit":"m.s-1","parameterCategory":1,"la1":30.2992,"la2":30.254,"lo1":-89.0895,"lo2":-89.0443,"dy":0.0025,"dx":0.0025,"nx":19,"ny":19,"refTime":"2026-03-23T09:00:00:Z","depth":0,"parameterNumber":3,"parameterNumberName":"V-component_of_WINDS"},"data":[0,0,0,-3.3808,-3.3811,-3.3995,-3.3996,-3.4197,-3.4199,0,0,0,0,0,0,0,0,0,0,0,-3.3732,-3.3733,-3.3807,-3.3811,-3.3995,-3.3996,-3.4197,-3.4199,0,0,0,0,0,0,0,0,0,0,0,-3.3732,-3.3733,-3.3733,-3.3812,-3.3995,-3.3996,-3.4197,-3.407,0,0,0,0,0,0,0,0,0,0,-3.3897,-3.3807,-3.3732,-3.3733,-3.3813,-3.3995,-3.3996,-3.4064,-3.4078,-3.4099,0,-3.4113,0,-3.4159,-3.421,-3.4211,0,0,0,-3.3827,-3.3795,-3.3864,-3.3733,-3.3814,-3.3994,-3.3916,-3.4072,-3.4087,-3.4117,-3.4116,-3.4124,-3.4162,-3.4211,-3.4212,-3.4286,-3.4286,0,0,-3.3816,-3.3754,-3.3854,-3.3873,-3.3843,-3.391,-3.3922,-3.4082,-3.4077,-3.4117,-3.413,-3.4165,-3.4212,-3.4213,-3.4287,-3.4286,0,0,0,-3.3777,-3.3746,-3.3812,-3.3864,-3.39,-3.3915,-3.3929,-3.407,-3.4096,-3.4132,-3.4168,-3.4213,-3.4215,-3.4287,-3.4287,-3.4206,0,0,0,-3.3771,-3.3723,-3.3806,-3.3769,-3.3896,-3.3987,-3.3912,-3.4085,-3.4105,-3.4167,-3.4213,-3.4217,-3.4288,-3.4287,-3.421,-3.4178,0,0,0,-3.3727,-3.3718,-3.3738,-3.3766,-3.3843,-3.3986,-3.4022,-3.4091,-3.4126,-3.4211,-3.4217,-3.4288,-3.4287,-3.4213,-3.4183,-3.4179,0,0,0,-3.3661,-3.3663,-3.3735,-3.3751,-3.3841,-3.3936,-3.4022,-3.4096,-3.4158,-3.4214,-3.4288,-3.4287,-3.4213,-3.4186,-3.4181,-3.4162,-3.4149,0,0,-3.3628,-3.3656,-3.3671,-3.3741,-3.3807,-3.3913,-3.3967,-3.4084,-3.4149,-3.4237,-3.424,-3.4209,-3.4183,-3.4179,-3.41,-3.4089,0,0,0,-3.3639,-3.3648,-3.368,-3.3737,-3.3828,-3.3903,-3.4019,-3.4063,-3.4141,-3.4182,-3.4209,-3.4196,-3.4196,-3.419,-3.418,-3.4184,-3.4282,-3.4282,-3.4282,-3.3498,-3.3584,-3.3614,-3.3722,-3.3778,-3.3899,-3.3952,-3.4032,-3.41,-3.4106,-3.4131,-3.4073,-3.4063,-3.4056,-3.4059,-3.413,-3.413,-3.413,-3.413,-3.3455,-3.3481,-3.3577,-3.3639,-3.3731,-3.3785,-3.3903,-3.3951,-3.4014,-3.406,-3.4065,-3.4105,-3.4042,-3.4049,-3.4124,-3.4125,-3.4126,-3.4127,-3.4127,-3.3369,-3.3397,-3.3453,-3.3547,-3.3611,-3.3722,-3.378,-3.3861,-3.3938,-3.3943,-3.3978,-3.398,-3.399,-3.3955,-3.3955,-3.3955,-3.3955,-3.3954,-3.3954,-3.3257,-3.3323,-3.3361,-3.3461,-3.351,-3.3586,-3.3711,-3.3762,-3.3839,-3.3894,-3.3895,-3.3962,-3.4021,-3.4032,-3.3951,-3.3952,-3.3952,-3.3953,-3.3953,-3.3175,-3.3208,-3.3267,-3.3317,-3.3442,-3.35,-3.3606,-3.3704,-3.3758,-3.3784,-3.3854,-3.3884,-3.3918,-3.3926,-3.3936,-3.3836,-3.3836,-3.3836,-3.3836,-3.3101,-3.3128,-3.3208,-3.3283,-3.3366,-3.3469,-3.3533,-3.3633,-3.374,-3.3779,-3.3807,-3.3828,-3.3833,-3.3864,-3.3874,-3.3884,-3.3772,-3.3772,-3.3772,-3.3055,-3.3095,-3.3133,-3.324,-3.3345,-3.3434,-3.3498,-3.358,-3.3709,-3.3772,-3.3811,-3.3814,-3.385,-3.3857,-3.3914,-3.3927,-3.3948,0,0]}]]